Printer-friendly version
Follow the MPC on Twitter Follow the MPC on Facebook The MPC blog
Minor Planet Center

MPEC 2006-O29 : 2006 OZ4

The following Minor Planet Electronic Circular may be linked-to from your own Web pages, but must not otherwise be redistributed electronically.

A form allowing access to any MPEC is at the bottom of this page.


Read MPEC 2006-O28 Read MPEC 2006-O30


M.P.E.C. 2006-O29                                Issued 2006 July 23, 03:53 UT

     The Minor Planet Electronic Circulars contain information on unusual
         minor planets and routine data on comets.  They are published
   on behalf of Commission 20 of the International Astronomical Union by the
          Minor Planet Center, Smithsonian Astrophysical Observatory,
                          Cambridge, MA 02138, U.S.A.

                  Supported in part by the Brinson Foundation
                  Supported in part by the TABASGO Foundation
             Prepared using the Tamkin Foundation Computer Network

                              MPC@CFA.HARVARD.EDU
          URL http://cfa-www.harvard.edu/iau/mpc.html  ISSN 1523-6714

                                   2006 OZ4

Observations:
     K06O04Z* C2006 07 21.25773 17 02 53.34 +12 55 35.1          19.6 V EO029G96
     K06O04Z  C2006 07 21.25829 17 02 53.05 +12 55 38.5          19.4 V EO029G96
     K06O04Z  C2006 07 21.25882 17 02 52.76 +12 55 42.0          19.5 V EO029G96
     K06O04Z  C2006 07 21.25935 17 02 52.51 +12 55 45.3          19.4 V EO029G96
     K06O04Z  C2006 07 21.28931 17 02 36.70 +12 58 51.5          19.4 V EO029G96
     K06O04Z  C2006 07 21.28985 17 02 36.45 +12 58 54.8          19.4 V EO029G96
     K06O04Z  C2006 07 21.29038 17 02 36.16 +12 58 58.3          19.5 V EO029G96
     K06O04Z  C2006 07 21.29093 17 02 35.88 +12 59 01.7          19.5 V EO029G96
     K06O04Z  C2006 07 21.29146 17 02 35.59 +12 59 04.9          19.4 V EO029G96
     K06O04Z  C2006 07 21.35928 17 02 00.16 +13 06 04.7          19.6 V EO029G96
     K06O04Z  C2006 07 21.35983 17 01 59.91 +13 06 08.2          19.7 V EO029G96
     K06O04Z  C2006 07 21.36037 17 01 59.59 +13 06 11.7          19.6 V EO029G96
     K06O04Z  C2006 07 21.87902 16 57 38.22 +13 59 38.2          19.3 V EO029198
     K06O04Z  C2006 07 21.88075 16 57 37.32 +13 59 49.0          19.6 V EO029198
     K06O04Z  C2006 07 21.88165 16 57 36.82 +13 59 54.6          19.3 V EO029198
     K06O04Z  C2006 07 21.88237 16 57 36.43 +13 59 59.1          19.3 V EO029198
     K06O04Z  C2006 07 22.11862 16 55 37.30 +14 24 17.8          19.5 R EO029734
     K06O04Z  C2006 07 22.12199 16 55 35.53 +14 24 38.6                 EO029734
     K06O04Z  C2006 07 22.12558 16 55 33.62 +14 25 00.5                 EO029734
     K06O04Z  C2006 07 22.24032 16 54 33.83 +14 36 46.4          20.3 V EO029G96
     K06O04Z  C2006 07 22.24086 16 54 33.53 +14 36 49.8          19.6 V EO029G96
     K06O04Z  C2006 07 22.24139 16 54 33.20 +14 36 53.6                 EO029G96
     K06O04Z  C2006 07 22.24192 16 54 32.94 +14 36 56.5                 EO029G96
     K06O04Z  C2006 07 22.24996 16 54 28.76 +14 37 44.8          19.7 V EO029G96
     K06O04Z  C2006 07 22.25052 16 54 28.44 +14 37 48.2          19.9 V EO029G96
     K06O04Z  C2006 07 22.25105 16 54 28.15 +14 37 51.4          19.9 V EO029G96
     K06O04Z  C2006 07 22.25159 16 54 27.86 +14 37 54.9          19.9 V EO029G96
     K06O04Z 1C2006 07 22.31647 16 53 54.91 +14 44 14.1                 EO029658
     K06O04Z 1C2006 07 22.31703 16 53 54.61 +14 44 17.9                 EO029658
     K06O04Z 1C2006 07 22.31759 16 53 54.32 +14 44 21.3                 EO029658
     K06O04Z 1C2006 07 22.31816 16 53 54.05 +14 44 24.5                 EO029658
     K06O04Z 1C2006 07 22.31873 16 53 53.75 +14 44 28.0                 EO029658
     K06O04Z  C2006 07 22.91276 16 48 53.20 +15 44 08.9                 EO029J95
     K06O04Z  C2006 07 22.92234 16 48 48.18 +15 45 06.4                 EO029J95
     K06O04Z  C2006 07 22.92835 16 48 45.03 +15 45 41.7                 EO029J95
     K06O04Z  C2006 07 22.95695 16 48 30.16 +15 48 32.1          20.2 R EO029J95

Observer details:
198 Wildberg.  Observer R. Apitzsch.  0.35-m f/4.2 reflector + CCD.
658 National Research Council of Canada.  Observer R. M. Robb.  Measurer
    D. D. Balam.  1.82-m Plaskett telescope + CCD.
734 Farpoint Observatory.  Observer G. Hug.  0.7-m reflector + CCD.
G96 Mt. Lemmon Survey.  Observer E. J. Christensen.  Measurers E. C. Beshore,
    E. J. Christensen, G. J. Garradd, A. R. Gibbs, A. D. Grauer, R. E. Hill,
    R. A. Kowalski, S. M. Larson, R. H. McNaught.  1.5-m reflector + CCD.
J95 Great Shefford.  Observer P. Birtwhistle.  0.40-m f/6.0 Schmidt-Cassegrain
    + CCD.

Orbital elements:
2006 OZ4                                                 Earth MOID = 0.1212 AU
Epoch 2006 Sept. 22.0 TT = JDT 2454000.5                MPC
M 342.30701              (2000.0)            P               Q
n   0.95368201     Peri.  141.48798     +0.47136430     -0.83102593
a   1.0221948      Node   278.54756     +0.71700478     +0.55606725
e   0.4317101      Incl.   17.37552     +0.51353660     -0.01360550
P   1.03           H   21.6           G   0.15           U   9
Residuals in seconds of arc
060721 G96  0.1-  0.1-    060721 198  0.4-  0.3-    060722 G96  0.3-  0.2+
060721 G96  0.0   0.2-    060721 198  0.2-  0.2-    060722 G96  0.4-  0.2+
060721 G96  0.1-  0.0     060721 198  0.7-  0.1-    060722 G96  0.5-  0.4+
060721 G96  0.3+  0.0     060721 198  0.8-  0.0     060722 658  1.2+  0.6-
060721 G96  0.2-  0.1-    060722 734  0.0   0.1+    060722 658  1.1+  0.2-
060721 G96  0.3+  0.1-    060722 734  0.1+  0.3+    060722 658  1.1+  0.2-
060721 G96  0.1+  0.1+    060722 734  0.1-  0.2+    060722 658  1.5+  0.4-
060721 G96  0.2+  0.1+    060722 G96  0.1-  0.3+    060722 658  1.5+  0.4-
060721 G96  0.1+  0.0     060722 G96  0.3-  0.4+    060722 J95  0.3+  0.3-
060721 G96  0.2-  0.2-    060722 G96  1.0-  1.0+    060722 J95  0.1-  0.2+
060721 G96  0.3+  0.1-    060722 G96  0.7-  0.6+    060722 J95  0.3-  0.3-
060721 G96  0.3-  0.1+    060722 G96  0.1+  0.2+    060722 J95  0.1-  0.2+

Ephemeris:
2006 OZ4                 a,e,i = 1.02, 0.43, 17                  q = 0.5809
Date    TT    R. A. (2000) Decl.     Delta      r     Elong.  Phase     V
2006 07 14    18 02.80   -00 03.5    0.162    1.158   149.2    26.7    19.2
2006 07 16    17 46.87   +03 29.7    0.158    1.146   142.7    32.5    19.3
2006 07 18    17 30.39   +07 07.0    0.156    1.133   135.9    38.6    19.4
2006 07 20    17 13.57   +10 43.1    0.155    1.120   129.1    44.8    19.5
2006 07 22    16 56.63   +14 12.5    0.156    1.107   122.3    50.8    19.7
2006 07 24    16 39.75   +17 30.9    0.158    1.094   115.8    56.8    19.8
2006 07 26    16 23.13   +20 34.9    0.161    1.080   109.4    62.5    20.0
2006 07 28    16 06.90   +23 22.7    0.165    1.066   103.4    67.9    20.2
2006 07 30    15 51.18   +25 53.7    0.171    1.052    97.8    73.0    20.4
2006 08 01    15 36.02   +28 08.1    0.177    1.038    92.4    77.8    20.6
2006 08 03    15 21.46   +30 06.9    0.183    1.023    87.4    82.3    20.8
2006 08 05    15 07.48   +31 51.5    0.191    1.008    82.7    86.4    21.1
2006 08 07    14 54.04   +33 23.1    0.198    0.993    78.3    90.4    21.3
2006 08 09    14 41.10   +34 43.1    0.206    0.978    74.2    94.1    21.5
2006 08 11    14 28.61   +35 52.5    0.214    0.963    70.3    97.6    21.7
2006 08 13    14 16.50   +36 52.5    0.223    0.947    66.6   100.9    21.9

Gareth V. Williams           (C) Copyright 2006 MPC           M.P.E.C. 2006-O29

Read MPEC 2006-O28 Read MPEC 2006-O30


MPEC number:

Enter an MPEC number in one of the following forms:

  • 1997-B01 (the full form)
  • J97B01 (the packed version of the full form)
  • B01 (the abbreviated form)

Valid HTML 4.01!